Regional Weather Roundup
Issued by NWS New Orleans/Baton Rouge, LA

Home | Current Version | Previous Version | Text Only | Print | Product List | Glossary Off
Versions: 1 2 3 4 5 6 7 8 9 10 11 12 13 14 15 16 17 18 19 20 21 22 23 24 25 26 27 28 29 30 31 32 33 34 35 36 37 38 39 40 41 42 43 44 45 46 47 48 49 50

572
ASUS44 KLIX 242305
RWRLIX
NEW ORLEANS REGIONAL WEATHER ROUNDUP
NATIONAL WEATHER SERVICE NEW ORLEANS LA
600 PM CDT THU APR 24 2014

NOTE: "FAIR" INDICATES FEW OR NO CLOUDS BELOW 12,000 FEET WITH NO
      SIGNIFICANT WEATHER AND/OR OBSTRUCTIONS TO VISIBILITY.
      SKY/WX - SKY CONDITION AND SIGNIFICANT WEATHER.
      TMP - AIR TEMPERATURE.     DP    - DEWPOINT TEMPERATURE.
      RH  - RELATIVE HUMIDITY.   PRES  - PRESSURE.
      HI  - HEAT INDEX.          WCI   - WIND CHILL INDEX.

*  THESE STATIONS ARE NOT NWS OR FAA STATIONS AND ARE NOT UNDER
   NWS QUALITY CONTROL.

LAZ038-040-048-061>063-065>067-069-250000-
SOUTHEAST LOUISIANA

CITY           SKY/WX    TMP DP  RH WIND       PRES   REMARKS
N.O. AUDUBON     N/A     78  65  64 MISG        N/A
N.O. INTL ARPT PTSUNNY   78  63  59 S15       29.87S
N.O. LAKEFRONT MOSUNNY   78  65  63 S18       29.87F
N.O. DOWNTOWN* MOCLDY    81  63  54 S14G20    29.87F
SLIDELL        MOSUNNY   78  66  66 SE14      29.85F
BATON ROUGE    CLOUDY    81  63  54 SW13      29.87R
BOOTHVILLE     MOSUNNY   74  66  76 S13       29.91F
BELLE CHASSE   PTSUNNY   77  64  64 S15       29.87F
BOGALUSA*        N/A     81  62  52 S13       29.87S
GALLIANO*      PTCLDY    79  66  65 S13       29.89F
NEW ROADS*     CLOUDY    80  65  60 S16       29.87S
GONZALES*        N/A     79  65  62 S13       29.87R
HAMMOND*       PTSUNNY   81  64  57 S8        29.88R
HOUMA*         PTSUNNY   75  64  69 SE15      29.89S
PORT FOURCHON* MOCLDY    75  68  78 S12       29.90F

$$

MSZ070-080>082-250000-
SOUTHERN MISSISSIPPI

CITY           SKY/WX    TMP DP  RH WIND       PRES   REMARKS
MCCOMB         PTSUNNY   80  64  58 S6        29.86R
GULFPORT       MOSUNNY   76  65  68 S12       29.90F
BILOXI         SUNNY     74  65  73 S12       29.90F
PASCAGOULA     MOSUNNY   73  64  73 S12       29.91F

$$

COASTAL OBSERVATIONS
LAKE AND NEARSHORE STATIONS

STATION/POSITION TIME  TEMP    WIND        PRES    WAVE
                       AIR SEA DIR/SP/G            HT/PER
                 (UTC) (F)     (DEG/KT/KT) (MB)    (FT/S)
PASCAGOULA       2300   74     190/ 11/ 13 1012.6
WAVELAND YACHT   2300   73 78  170/ 14/ 17 1011.6
GRAND ISLE       2300   74 72  170/  6/  9 1013.0
SOUTHWEST PASS   2300   76 62  160/  7/ 10 1013.7
NEW CANAL        2300   80 74  190/  7/ 12 1011.5
SHELL BEACH      2300   76 70  170/ 11/ 13 1011.6

OFFSHORE STATIONS

STATION/POSITION TIME  TEMP    WIND        PRES    WAVE
                       AIR SEA DIR/SP/G            HT/PER
                 (UTC) (F)     (DEG/KT/KT) (MB)    (FT/S)
64 S DAUPHIN ISL 2235   72 74  160/  8/ 10 1014.0

$$




USA.gov is the U.S. government's official web portal to all federal, state and local government web resources and services.